Weather History for Mansfield, OH

Change the Weather History Date:

Thursday, June 27, 2013

  Actual Average Record
Temperature  
Mean Temperature 74 °F 70 °F  
Max Temperature 81 °F 81 °F 94 °F (1983)
Min Temperature 66 °F 60 °F 42 °F (1927)
Degree Days  
Heating Degree Days 0 1  
Month to date heating degree days 39 52  
Since 1 June heating degree days 39 52  
Since 1 July heating degree days 6021 6269  
Cooling Degree Days 9 6  
Month to date cooling degree days 134 117  
Year to date cooling degree days 229 163  
Since 1 June cooling degree days 134 117  
Growing Degree Days 23 (Base 50)    
Moisture  
Dew Point 68 °F    
Average Humidity 85    
Maximum Humidity 100    
Minimum Humidity 69    
Precipitation  
Precipitation 0.95 in 0.15 in 1.27 in (1986)
Month to date precipitation 6.64 4.30  
Year to date precipitation 20.51 21.63  
Snow  
Snow 0.00 in 0.00 in - ()
Month to date snowfall 0.0 0.0  
Since 1 June snowfall 0.0 0.0  
Since 1 July snowfall 39.4 48.3  
Snow Depth 0.00 in    
Sea Level Pressure  
Sea Level Pressure 29.74 in    
Wind  
Wind Speed 5 mph (WSW)    
Max Wind Speed 36 mph    
Max Gust Speed 66 mph    
Visibility 7 miles    
Events Rain , Thunderstorm    
T = Trace of Precipitation, MM = Missing Value Source: NWS Daily Summary

Daily Weather History Graph

Daily Weather History Graph

Search for Another Location

Airport:

Trip Planner

Search our weather history database for the weather conditions in past years. The results will help you decide how hot, cold, wet, or windy it might be!

Date:

Astronomy

Jun. 27, 2013 Rise Set
Actual Time 6:00 AM EDT 9:05 PM EDT
Civil Twilight 5:27 AM EDT 9:39 PM EDT
Nautical Twilight 4:44 AM EDT 10:21 PM EDT
Astronomical Twilight 3:54 AM EDT 11:12 PM EDT
Moon 11:59 PM EDT (6/27) 11:02 AM EDT (6/27)
Length of Visible Light 16h 11m
Length of Day
15h 05m
Waning Gibbous, 76% of the Moon is Illuminated
Jun 27
Waning Gibbous
Jun 30
Last Quarter
Jul 8
New
Jul 15
First Quarter
Jul 22
Full

Hourly Weather History & Observations

Time (EDT) Temp. Heat Index Dew Point Humidity Pressure Visibility Wind Dir Wind Speed Gust Speed Precip Events Conditions
12:52 AM 68.0 °F - 66.9 °F 96% 29.80 in 9.0 mi South 10.4 mph - 0.00 in Rain Light Rain
1:52 AM 68.0 °F - 66.9 °F 96% 29.79 in 6.0 mi SSE 3.5 mph - 0.05 in Rain Light Rain
2:52 AM 68.0 °F - 66.9 °F 96% 29.77 in 7.0 mi Calm Calm - 0.05 in Rain Light Rain
3:52 AM 68.0 °F - 66.9 °F 96% 29.76 in 10.0 mi SSE 6.9 mph - 0.02 in   Overcast
4:48 AM 68.0 °F - 66.2 °F 94% 29.78 in 10.0 mi Calm Calm - 0.05 in   Overcast
4:52 AM 68.0 °F - 66.9 °F 96% 29.75 in 9.0 mi Calm Calm - 0.05 in   Overcast
5:52 AM 68.0 °F - 66.9 °F 96% 29.75 in 8.0 mi Calm Calm - N/A   Overcast
6:52 AM 68.0 °F - 66.9 °F 96% 29.75 in 6.0 mi Calm Calm - N/A   Overcast
7:12 AM 68.0 °F - 66.2 °F 94% 29.77 in 5.0 mi South 3.5 mph - N/A   Overcast
7:50 AM 69.8 °F - 68.0 °F 94% 29.77 in 5.0 mi SSW 5.8 mph - 0.00 in   Mostly Cloudy
7:52 AM 69.1 °F - 68.0 °F 96% 29.75 in 5.0 mi SSW 5.8 mph - 0.00 in   Mostly Cloudy
8:20 AM 69.8 °F - 68.0 °F 94% 29.77 in 5.0 mi SSW 5.8 mph - 0.00 in   Overcast
8:52 AM 70.0 °F - 68.0 °F 93% 29.74 in 7.0 mi SW 5.8 mph - 0.00 in   Overcast
9:09 AM 69.8 °F - 69.8 °F 100% 29.77 in 2.0 mi South 4.6 mph - N/A   Overcast
9:23 AM 69.8 °F - 69.8 °F 100% 29.77 in 5.0 mi SSW 4.6 mph - N/A   Overcast
9:52 AM 70.0 °F - 69.1 °F 97% 29.74 in 6.0 mi WSW 3.5 mph - N/A   Overcast
10:25 AM 69.8 °F - 69.8 °F 100% 29.76 in 3.0 mi West 3.5 mph - 0.00 in Rain Light Rain
10:34 AM 71.6 °F - 69.8 °F 94% 29.76 in 3.0 mi West 3.5 mph - 0.00 in Rain Light Rain
10:52 AM 71.1 °F - 69.1 °F 93% 29.74 in 5.0 mi WNW 4.6 mph - 0.00 in   Mostly Cloudy
11:07 AM 73.4 °F - 69.8 °F 88% 29.76 in 5.0 mi Variable 3.5 mph - N/A   Overcast
11:16 AM 73.4 °F - 69.8 °F 88% 29.76 in 8.0 mi WNW 4.6 mph - N/A   Overcast
11:23 AM 73.4 °F - 69.8 °F 88% 29.76 in 8.0 mi West 5.8 mph - N/A   Overcast
11:37 AM 75.2 °F - 69.8 °F 83% 29.76 in 10.0 mi West 4.6 mph - N/A   Overcast
11:52 AM 75.0 °F - 69.1 °F 82% 29.73 in 10.0 mi NW 6.9 mph - N/A   Mostly Cloudy
12:03 PM 75.2 °F - 68.0 °F 78% 29.75 in 10.0 mi Variable 5.8 mph - N/A   Mostly Cloudy
12:16 PM 75.2 °F - 69.8 °F 83% 29.76 in 10.0 mi North 8.1 mph - N/A   Mostly Cloudy
12:23 PM 77.0 °F - 69.8 °F 78% 29.76 in 10.0 mi North 5.8 mph - N/A   Mostly Cloudy
12:52 PM 75.9 °F - 66.9 °F 74% 29.73 in 10.0 mi North 5.8 mph - N/A   Mostly Cloudy
1:35 PM 78.8 °F - 68.0 °F 69% 29.75 in 10.0 mi NNW 6.9 mph - N/A   Mostly Cloudy
1:52 PM 79.0 °F - 68.0 °F 69% 29.72 in 10.0 mi NNW 8.1 mph - N/A   Mostly Cloudy
2:02 PM 78.8 °F - 68.0 °F 69% 29.75 in 10.0 mi NNW 6.9 mph - N/A   Mostly Cloudy
2:09 PM 80.6 °F 83.2 °F 68.0 °F 65% 29.74 in 10.0 mi NW 6.9 mph - N/A   Mostly Cloudy
2:52 PM 75.9 °F - 68.0 °F 76% 29.72 in 9.0 mi NW 8.1 mph - 0.00 in Rain Light Rain
3:08 PM 71.6 °F - 69.8 °F 94% 29.76 in 10.0 mi West 6.9 mph - 0.02 in Rain Light Rain
3:15 PM 71.6 °F - 69.8 °F 94% 29.76 in 10.0 mi West 4.6 mph - 0.02 in Rain Light Rain
3:52 PM 79.0 °F - 69.1 °F 72% 29.71 in 10.0 mi West 8.1 mph - 0.02 in   Scattered Clouds
4:52 PM 78.1 °F - 68.0 °F 71% 29.70 in 10.0 mi West 4.6 mph - N/A   Partly Cloudy
5:52 PM 80.1 °F 83.2 °F 70.0 °F 71% 29.69 in 9.0 mi West 4.6 mph - N/A   Scattered Clouds
6:52 PM 79.0 °F - 69.1 °F 72% 29.68 in 8.0 mi NNW 4.6 mph - N/A   Partly Cloudy
7:25 PM 78.8 °F - 69.8 °F 74% 29.72 in 7.0 mi Calm Calm - N/A Thunderstorm Partly Cloudy
7:50 PM 71.6 °F - 69.8 °F 94% 29.73 in 2.5 mi SW 10.4 mph - 0.10 in Rain , Thunderstorm Heavy Thunderstorms and Rain
7:52 PM 71.1 °F - 69.1 °F 93% 29.71 in 2.5 mi WSW 11.5 mph 17.3 mph 0.13 in Rain , Thunderstorm Heavy Thunderstorms and Rain
7:59 PM 71.6 °F - 64.4 °F 78% 29.73 in 1.0 mi Variable 5.8 mph 20.7 mph 0.18 in Rain , Thunderstorm Heavy Thunderstorms and Rain
8:12 PM 73.4 °F - 62.6 °F 69% 29.73 in 0.5 mi WSW 8.1 mph 65.6 mph 0.58 in Rain , Thunderstorm Light Thunderstorms and Rain
8:17 PM 71.6 °F - 64.4 °F 78% 29.73 in 2.0 mi South 4.6 mph - 0.60 in Rain , Thunderstorm Thunderstorms and Rain
8:22 PM 69.8 °F - 66.2 °F 88% 29.72 in 4.0 mi SE 3.5 mph - 0.60 in Rain , Thunderstorm Light Thunderstorms and Rain
8:52 PM 69.1 °F - 66.9 °F 93% 29.71 in 10.0 mi NNE 5.8 mph - 0.63 in Thunderstorm Thunderstorm
9:10 PM 69.8 °F - 66.2 °F 88% 29.74 in 10.0 mi North 3.5 mph - N/A   Mostly Cloudy
9:52 PM 69.1 °F - 68.0 °F 96% 29.71 in 7.0 mi Calm Calm - 0.00 in Rain Light Rain
10:52 PM 66.9 °F - 66.9 °F 100% 29.69 in 7.0 mi SW 3.5 mph - 0.00 in   Clear
11:43 PM 66.2 °F - 66.2 °F 100% 29.68 in 2.5 mi South 5.8 mph - N/A   Clear
11:52 PM 66.0 °F - 66.0 °F 100% 29.66 in 3.0 mi SW 8.1 mph - N/A   Clear